Simultaneous Nadir Overpasses (SNOs) Predictions

Prediction of SNOs between AQUA and METOP-B Satellite Orbit:

Table of predicted SNOs for the next 14.0 days since TLE Epoch: 3/4/2023
Index Date (AQUA) Time (AQUA) Lat,Lon (AQUA) SZA (AQUA ) Date (METOP-B) Time (METOP-B) Lat,Lon (METOP-B) SZA (METOP-B ) Distance(km) Time Diff (sec)
1 03/06/2023 06:27:11 74.30, 78.61 80.09 03/06/2023 06:26:33 74.29, 78.66 80.09 1.53 38
2 03/06/2023 07:16:36 -74.34,-113.85 99.88 03/06/2023 07:17:14 -74.34,-113.90 99.89 1.75 38
3 03/09/2023 00:20:44 74.27, 170.32 78.98 03/09/2023 00:19:33 74.28, 170.39 79.01 2.94 71
4 03/09/2023 01:10:09 -74.31, -22.13 100.99 03/09/2023 01:10:14 -74.33, -22.16 100.97 2.94 5
5 03/09/2023 01:59:38 74.45, 145.16 79.15 03/09/2023 02:00:50 74.51, 145.63 79.18 15.11 72
6 03/11/2023 19:03:40 -74.32, 69.48 102.06 03/11/2023 19:03:13 -74.31, 69.54 102.07 2.15 27
7 03/11/2023 19:53:07 74.37,-123.00 77.99 03/11/2023 19:53:51 74.39,-122.93 77.99 2.57 44
8 03/14/2023 12:57:09 -74.29, 161.21 103.18 03/14/2023 12:56:13 -74.28, 161.20 103.19 1.47 56
9 03/14/2023 13:46:36 74.35, -31.28 76.87 03/14/2023 13:46:51 74.35, -31.28 76.87 0.59 15
10 03/14/2023 14:36:14 -75.04, 134.62 102.40 03/14/2023 14:37:19 -75.03, 137.88 102.52 93.76 65
11 03/17/2023 06:50:30 -73.95,-106.34 104.64 03/17/2023 06:49:20 -73.88,-108.03 104.64 52.62 70
12 03/17/2023 07:40:03 74.32, 60.44 75.75 03/17/2023 07:39:50 74.35, 60.47 75.78 3.27 13
13 03/17/2023 08:29:29 -74.40,-132.10 104.18 03/17/2023 08:30:31 -74.40,-132.08 104.19 0.82 62



Historial Predications of SNOs between AQUA and METOP-B
